Flag for U.S.A. Weather past 2 weeks in St. Paul, Minnesota, U.S.A.

Now
70 °F

Overcast.


Feels Like: 73 °F
Forecast: 66 / 75 °F
Wind: 10 mph from North

Location: St. Paul Downtown Holman Field

Current Time: Aug 30, 2014 at 1:41:38 PM

Latest Report: Aug 30, 2014 at 11:53 AM


Visibility: 10 mi

Pressure: 29.84 "Hg

Humidity: 73%

Dew point: 61 °F

Location of St. PaulLocation

Historic Weather in St. Paul — Graph

°F

St. Paul temperature yesterday

Maximum temperature yesterday: 79 °F (at 4:53 PM)
Minimum temperature yesterday: 67 °F (at 12:53 AM)
Average temperature yesterday: 71 °F

Past Weeks' High & Low Weather Summary

 TemperatureHumidityPressure
High86 °F (Aug 18, 4:53 PM)100% (Aug 17, 11:59 PM)30.24 "Hg (Aug 17, 11:59 PM)
Low56 °F (Aug 26, 6:53 AM)42% (Aug 25, 11:53 AM)29.62 "Hg (Aug 18, 7:53 PM)
Average72 °F79%29.89 "Hg
* Reported Aug 15 11:53 AM — Aug 30 11:53 AM, St. Paul, Weather by CustomWeather, © 2014

Note: Actual official high and low records may vary slightly from our data, if they occured in-between our weather recording intervals... More about our weather records

Advertising

St. Paul weather history for previous 24 hours

 ConditionsComfort  
Time TempWeatherWind HumidityBarometerVisibility
11:53 AM
Aug 30
70 °FOvercast.10 mph73%29.84 "Hg10 mi
10:53 AM70 °FOvercast.9 mph76%29.83 "Hg10 mi
9:53 AM69 °FPartly sunny.9 mph81%29.82 "Hg10 mi
8:53 AM67 °FMostly cloudy.7 mph87%29.81 "Hg10 mi
7:53 AM67 °FOvercast.8 mph90%29.81 "Hg10 mi
6:53 AM67 °FOvercast.7 mph93%29.79 "Hg10 mi
5:53 AM67 °FMostly cloudy.9 mph97%29.77 "Hg10 mi
5:03 AM68 °FMostly cloudy.8 mph93%29.77 "Hg10 mi
4:53 AM68 °FOvercast.8 mph93%29.75 "Hg10 mi
3:56 AM68 °FLight rain. Mostly cloudy.6 mph96%29.76 "Hg10 mi
2:53 AM67 °FLight rain. Fog.7 mph100%29.73 "Hg6 mi
1:53 AM67 °FHeavy rain. Fog.7 mph100%29.74 "Hg2 mi
12:53 AM67 °FLight rain. Overcast.3 mph100%29.75 "Hg9 mi
11:53 PM
Aug 29
69 °FLight rain. Mostly cloudy.3 mph93%29.76 "Hg10 mi
10:53 PM70 °FMostly cloudy.No wind93%29.75 "Hg10 mi
9:53 PM70 °FPassing clouds.No wind93%29.75 "Hg10 mi
8:53 PM70 °FBroken clouds.3 mph93%29.74 "Hg10 mi
7:53 PM70 °FLight rain. Partly sunny.No wind93%29.73 "Hg10 mi
6:53 PM71 °FLight rain. Mostly cloudy.No wind90%29.72 "Hg10 mi
5:53 PM71 °FThundershowers. Overcast.7 mph81%29.72 "Hg6 mi
4:53 PM79 °FPartly sunny.3 mph74%29.70 "Hg10 mi
3:53 PM77 °FPartly sunny.5 mph79%29.71 "Hg10 mi
1:53 PM77 °FOvercast.6 mph74%29.76 "Hg10 mi
Weather by CustomWeather, © 2014

See weather overviewHow to use our weather pages